KI6IKQ Weather Reports


time (UTC)temp
C
wind
direction
speed
KPH
gust
KPH
rain 1hr
cm
rain 24hr
cm
rain mn
cm
humidity
%
barometer
mb
20260507100004 13 297 3.2 6.4 0.00 0.00 0.00 87 1017.4
20260507095403 13 296 3.2 6.4 0.00 0.00 0.00 87 1017.3
20260507094503 13 296 3.2 6.4 0.00 0.00 0.00 87 1017.4
20260507093603 13 298 1.6 6.4 0.00 0.00 0.00 87 1017.3
20260507092703 13 299 1.6 6.4 0.00 0.00 0.00 87 1017.5
20260507091804 14 301 0.0 4.8 0.00 0.00 0.00 88 1017.6
20260507090903 14 301 0.0 3.2 0.00 0.00 0.00 87 1017.5
20260507090004 14 301 0.0 3.2 0.00 0.00 0.00 87 1017.5
20260507085403 14 301 0.0 3.2 0.00 0.00 0.00 87 1017.5
20260507084524 14 301 1.6 3.2 0.00 0.00 0.00 87 1017.6
20260507083603 14 301 1.6 3.2 0.00 0.00 0.00 86 1017.4
20260507082703 14 304 1.6 8.0 0.00 0.00 0.00 86 1017.4
20260507081803 14 308 1.6 8.0 0.00 0.00 0.00 85 1017.4
20260507080903 15 313 1.6 4.8 0.00 0.00 0.00 85 1017.4
20260507080003 15 313 1.6 4.8 0.00 0.00 0.00 84 1017.4
20260507075403 15 313 1.6 4.8 0.00 0.00 0.00 84 1017.4
20260507074503 15 313 1.6 4.8 0.00 0.00 0.00 84 1017.5
20260507073603 15 313 1.6 4.8 0.00 0.00 0.00 84 1017.6
20260507072703 15 298 3.2 9.7 0.00 0.00 0.00 83 1017.6
20260507071803 15 290 3.2 6.4 0.00 0.00 0.00 83 1017.5
20260507070903 15 290 3.2 8.0 0.00 0.00 0.00 83 1017.5
20260507070005 15 290 3.2 6.4 0.00 0.00 0.00 82 1017.4
20260507065403 15 290 3.2 6.4 0.00 0.00 0.00 82 1017.4
20260507064503 15 290 1.6 4.8 0.00 0.00 0.00 82 1017.4
20260507063603 15 290 1.6 6.4 0.00 0.00 0.00 81 1017.3
20260507062703 15 290 1.6 4.8 0.00 0.00 0.00 80 1017.3
20260507061803 16 290 1.6 4.8 0.00 0.00 0.00 81 1017.3
20260507060903 16 290 1.6 4.8 0.00 0.00 0.00 80 1017.2
20260507060003 16 290 3.2 6.4 0.00 0.00 0.00 79 1017.3
20260507055403 16 290 3.2 6.4 0.00 0.00 0.00 79 1017.4
20260507054503 16 289 1.6 8.0 0.00 0.00 0.00 79 1017.3
20260507053603 17 290 3.2 8.0 0.00 0.00 0.00 79 1017.4
20260507052703 17 279 3.2 6.4 0.00 0.00 0.00 78 1017.5
20260507051803 17 271 3.2 6.4 0.00 0.00 0.00 78 1017.5
20260507050903 17 280 3.2 9.7 0.00 0.00 0.00 77 1017.4
20260507050003 17 277 1.6 9.7 0.00 0.00 0.00 79 1017.4
20260507045403 18 277 1.6 4.8 0.00 0.00 0.00 78 1017.3
20260507044503 18 277 1.6 3.2 0.00 0.00 0.00 78 1017.3
20260507043603 18 277 1.6 4.8 0.00 0.00 0.00 77 1017.3
20260507042703 18 279 1.6 6.4 0.00 0.00 0.00 77 1017.3
20260507041806 18 291 1.6 9.7 0.00 0.00 0.00 76 1017.1
20260507040903 19 271 3.2 6.4 0.00 0.00 0.00 75 1017.2
20260507040003 20 279 3.2 11.3 0.00 0.00 0.00 74 1017.2
20260507035403 20 308 3.2 11.3 0.00 0.00 0.00 73 1017.1
20260507034503 20 290 4.8 12.9 0.00 0.00 0.00 72 1017.0
20260507033603 21 294 4.8 9.7 0.00 0.00 0.00 71 1017.0
20260507032703 21 299 4.8 11.3 0.00 0.00 0.00 69 1016.9
20260507031803 22 288 4.8 8.0 0.00 0.00 0.00 66 1016.8
20260507030903 22 286 3.2 8.0 0.00 0.00 0.00 64 1016.7
20260507030003 23 285 3.2 6.4 0.00 0.00 0.00 62 1016.5
20260507025403 23 285 4.8 6.4 0.00 0.00 0.00 61 1016.4
20260507024503 23 276 4.8 6.4 0.00 0.00 0.00 61 1016.3
20260507023603 24 281 4.8 11.3 0.00 0.00 0.00 59 1016.3
20260507022703 25 295 4.8 9.7 0.00 0.00 0.00 58 1016.3
20260507021824 25 297 4.8 14.5 0.00 0.00 0.00 57 1016.2
20260507020903 25 303 4.8 11.3 0.00 0.00 0.00 56 1016.1
20260507020003 25 304 4.8 12.9 0.00 0.00 0.00 56 1016.1
20260507015403 25 302 6.4 12.9 0.00 0.00 0.00 55 1016.1
20260507014503 25 303 6.4 12.9 0.00 0.03 0.00 55 1016.2
20260507013603 25 323 6.4 12.9 0.00 0.03 0.00 53 1016.2
20260507012703 26 316 6.4 12.9 0.00 0.03 0.00 53 1016.1
20260507011803 26 318 4.8 9.7 0.00 0.03 0.00 53 1016.1
20260507010903 26 304 6.4 16.1 0.00 0.03 0.00 52 1016.1
20260507010003 26 303 6.4 16.1 0.00 0.03 0.00 52 1016.1
20260507005424 26 320 8.0 16.1 0.00 0.03 0.00 52 1016.2
20260507004503 26 326 6.4 14.5 0.00 0.03 0.00 51 1016.2
20260507003603 26 323 6.4 14.5 0.00 0.03 0.00 52 1016.2
20260507002724 26 330 8.0 14.5 0.00 0.03 0.00 51 1016.2
20260507001803 26 326 4.8 14.5 0.00 0.03 0.00 50 1016.2
20260507000903 26 326 6.4 14.5 0.00 0.03 0.00 51 1016.2
20260507000003 26 310 4.8 12.9 0.00 0.03 0.00 51 1016.2
20260506235403 26 305 4.8 12.9 0.00 0.03 0.00 51 1016.2
20260506234503 26 319 4.8 14.5 0.00 0.03 0.00 51 1016.3
20260506233603 26 313 4.8 14.5 0.00 0.03 0.00 52 1016.5
20260506232703 26 328 6.4 14.5 0.00 0.03 0.00 52 1016.5
20260506231824 26 336 8.0 17.7 0.00 0.03 0.00 53 1016.6
20260506230903 26 330 6.4 14.5 0.00 0.03 0.00 52 1016.7
20260506230003 26 298 6.4 20.9 0.00 0.03 0.00 51 1016.8
20260506225403 26 296 4.8 12.9 0.00 0.03 0.00 53 1016.8
20260506224503 25 313 6.4 16.1 0.00 0.03 0.00 53 1016.9
20260506223603 25 342 8.0 19.3 0.00 0.03 0.00 53 1017.0
20260506222703 25 323 4.8 14.5 0.00 0.03 0.00 52 1017.2
20260506221803 25 336 6.4 16.1 0.00 0.03 0.00 52 1017.3
20260506220903 25 333 6.4 14.5 0.00 0.03 0.00 53 1017.6
20260506220003 25 334 6.4 14.5 0.00 0.03 0.00 54 1017.7
20260506215403 25 356 4.8 12.9 0.00 0.03 0.00 53 1017.7
20260506214503 25 309 6.4 16.1 0.00 0.03 0.00 53 1017.9
20260506213603 25 323 4.8 12.9 0.00 0.03 0.00 54 1018.0
20260506212703 25 343 4.8 14.5 0.00 0.03 0.00 53 1018.0
20260506211803 24 299 4.8 12.9 0.00 0.03 0.00 55 1018.1
20260506210903 24 329 4.8 14.5 0.00 0.03 0.00 54 1018.1
20260506210003 24 339 4.8 14.5 0.00 0.03 0.00 53 1018.2
20260506205403 24 330 3.2 12.9 0.00 0.03 0.00 55 1018.3
20260506204503 23 327 4.8 14.5 0.00 0.03 0.00 54 1018.6
20260506203603 23 327 6.4 16.1 0.00 0.03 0.00 57 1018.7
20260506202703 23 323 4.8 12.9 0.00 0.03 0.00 56 1018.9
20260506201803 23 329 4.8 12.9 0.00 0.03 0.00 58 1019.0
20260506200903 22 343 6.4 14.5 0.00 0.03 0.00 57 1019.1
20260506200003 22 336 6.4 14.5 0.00 0.03 0.00 57 1019.1
20260506195403 22 331 4.8 14.5 0.00 0.03 0.00 56 1019.2
20260506194503 22 12 4.8 12.9 0.00 0.03 0.00 54 1019.2
20260506193603 22 28 3.2 9.7 0.00 0.03 0.00 57 1019.2
20260506192703 22 342 4.8 12.9 0.00 0.03 0.00 58 1019.3
20260506191803 22 354 4.8 11.3 0.00 0.03 0.00 59 1019.3
20260506190903 22 337 6.4 14.5 0.00 0.03 0.00 58 1019.5
20260506190024 22 335 4.8 12.9 0.00 0.03 0.00 58 1019.6
20260506185424 22 329 4.8 9.7 0.00 0.03 0.00 59 1019.6
20260506184524 22 313 4.8 12.9 0.00 0.03 0.00 61 1019.7
20260506183624 22 336 4.8 14.5 0.00 0.03 0.00 60 1019.7
20260506182724 22 320 4.8 14.5 0.00 0.03 0.00 61 1019.8
20260506181803 21 317 4.8 14.5 0.00 0.03 0.00 63 1019.8
20260506180903 21 337 4.8 9.7 0.00 0.03 0.00 62 1019.8
20260506180004 21 308 4.8 12.9 0.00 0.03 0.00 63 1019.8
20260506175424 21 288 4.8 12.9 0.00 0.03 0.00 64 1019.9
20260506174503 21 287 4.8 12.9 0.00 0.03 0.00 64 1019.9
20260506173603 20 335 4.8 8.0 0.00 0.03 0.00 65 1020.0
20260506172703 20 314 4.8 12.9 0.00 0.03 0.00 66 1019.9
20260506171803 20 285 4.8 12.9 0.00 0.03 0.00 68 1019.9
20260506170903 20 295 4.8 12.9 0.00 0.03 0.00 67 1020.1
20260506170003 19 290 4.8 9.7 0.00 0.03 0.00 69 1020.1
20260506165403 19 282 4.8 9.7 0.00 0.03 0.00 69 1020.0
20260506164503 18 311 3.2 9.7 0.00 0.03 0.00 72 1020.0
20260506163603 18 292 4.8 12.9 0.00 0.03 0.00 74 1020.0
20260506162724 17 294 4.8 12.9 0.00 0.03 0.00 76 1019.9
20260506161824 17 280 4.8 9.7 0.00 0.03 0.00 79 1020.0
20260506160924 16 274 3.2 11.3 0.00 0.03 0.00 80 1020.0
20260506160024 15 282 3.2 11.3 0.00 0.03 0.00 83 1020.1
20260506155424 15 281 3.2 11.3 0.00 0.03 0.00 83 1020.0
20260506154503 15 281 3.2 6.4 0.00 0.03 0.00 83 1020.1
20260506153603 14 245 3.2 6.4 0.00 0.03 0.00 84 1020.1
20260506152703 14 225 1.6 4.8 0.00 0.03 0.00 85 1020.1
20260506151803 14 286 1.6 6.4 0.00 0.03 0.00 86 1020.0
20260506150903 13 301 0.0 3.2 0.00 0.03 0.00 86 1020.1
20260506150003 13 301 0.0 4.8 0.00 0.03 0.00 87 1020.1
20260506145403 13 301 0.0 3.2 0.00 0.03 0.00 88 1020.1
20260506144503 13 301 0.0 3.2 0.00 0.03 0.00 88 1020.2
20260506143603 13 301 0.0 4.8 0.00 0.03 0.00 87 1020.1
20260506142703 13 302 1.6 4.8 0.00 0.03 0.00 88 1020.0
20260506141803 13 307 1.6 4.8 0.00 0.03 0.00 88 1020.0
20260506140903 13 316 1.6 6.4 0.00 0.03 0.00 88 1019.9
20260506140003 12 303 1.6 6.4 0.00 0.03 0.00 89 1019.8
20260506135403 12 303 1.6 6.4 0.00 0.03 0.00 89 1019.7
20260506134503 12 139 1.6 6.4 0.00 0.03 0.00 89 1019.6
20260506133603 12 143 0.0 3.2 0.00 0.03 0.00 89 1019.5
20260506132703 12 0 0.0 0.0 0.00 0.03 0.00 89 1019.5
20260506131803 12 0 0.0 0.0 0.00 0.03 0.00 89 1019.4
20260506130903 12 0 0.0 0.0 0.00 0.03 0.00 89 1019.5
20260506130003 12 0 0.0 0.0 0.00 0.03 0.00 89 1019.4
20260506125403 12 0 0.0 0.0 0.00 0.03 0.00 89 1019.4
20260506124524 12 0 0.0 0.0 0.00 0.03 0.00 89 1019.4
20260506123603 12 0 0.0 0.0 0.00 0.03 0.00 89 1019.2
20260506122703 12 0 0.0 0.0 0.00 0.03 0.00 89 1019.1
20260506121803 12 312 0.0 1.6 0.00 0.03 0.00 89 1019.1
20260506120903 12 312 0.0 3.2 0.00 0.03 0.00 90 1019.1
20260506120004 12 312 0.0 3.2 0.00 0.03 0.00 90 1019.0
20260506115403 12 312 0.0 3.2 0.00 0.03 0.00 89 1019.0
20260506114503 12 312 0.0 1.6 0.00 0.03 0.00 89 1019.0
20260506113603 12 312 0.0 1.6 0.00 0.03 0.00 89 1019.0
20260506112703 11 0 0.0 0.0 0.00 0.03 0.00 89 1018.9
20260506111806 11 0 0.0 0.0 0.00 0.03 0.00 89 1018.9
20260506110903 12 0 0.0 0.0 0.00 0.03 0.00 89 1018.6
20260506110003 12 0 0.0 0.0 0.00 0.03 0.00 89 1018.6
20260506105403 12 312 1.6 3.2 0.00 0.03 0.00 89 1018.6
20260506104503 12 312 1.6 6.4 0.00 0.03 0.00 89 1018.5
20260506103603 12 312 1.6 4.8 0.00 0.03 0.00 89 1018.5
20260506102703 11 312 1.6 4.8 0.00 0.03 0.00 89 1018.5
20260506101803 11 313 0.0 3.2 0.00 0.03 0.00 88 1018.5
20260506100903 11 312 1.6 6.4 0.00 0.03 0.00 88 1018.3